Showing default

OPS 9332 (IDSCS 17), 2863

Orbit data source: Space-Track

OPS 9332 (IDSCS 17), 2863 is a payload satellite owned by SAMSO (US) that was launched on Sat, 01 Jul 1967 UTC via a TITAN IIIC launch vehicle from the Air Force Eastern Test Range (AFETR). Payloads include a variety of satellites, spacecraft, and rockets equipped with specific instruments for various scientific and technological missions. These include communications satellites like Starlink; space stations such as the ISS; scientific satellites like the Hubble; Earth observation satellites from companies like Planet Labs, Umbra, and HawkEye 360; GPS; miniature CubeSats for education and research; and military/defense satellites.

Loading next visibility...
OPS 9332 (IDSCS 17) details
Identifier
2863, 1967-066B
Orbit
Active
Last TLE update16 hours ago
Origin
Flag of USSAMSO (US)
ManufacturerPhilco-Ford WDL
MissionNon-operational Defense Communications
Bus & MotorIDCSP, Unknown motor
Mass45 kg wet, 45 kg dry
Launch date (UTC)
1967-07-01 (57 years ago)
Launch vehicle
TITAN IIIC
Launch site
Air Force Eastern Test Range (AFETR)
Object type
Payload
Rocket body
Debris
Shape & HBRPoly, 0.9 m
Radar Cross Section0.926 m², Medium (>0.1 m² and < 1m²)

Expand to show TLE details & history

TLE from 16 hours ago
0 OPS 9332 (IDSCS 17)
1 02863U 67066B   24346.62808293 -.00000034  00000-0  00000-0 0  9999
2 02863   1.6091 115.8076 0062486 209.3410 154.4067  1.09896481118655
Epoch: 2024-12-11T15:04Z
Definitive object data (Epoch: 2024-12-11T15:04:26.365Z)
Latitude0.12484°
Longitude172.91557°
Altitude33,510.065 km
Speed3.152 km/s
True Right ascension07h 59m 22s
True Declination0° 07' 29"
Sunlit
Object was in daylight at TLE epoch
Visualization TLE readout
Latitude-1.59243°
Longitude80.963°
Altitude33,173.147 km
Speed3.179 km/s
Apparent Right ascension01h 25m 51s
Apparent Declination-7° 54' 47"
Sunlit
Object is in daylight
Visualization observer readout
Local Sidereal Time05:44:18
Azimuth247.094° WSW
Elevation13.732°
Doppler factor1
Orbital elements
Apogee altitude33,536.331 km
Perigee altitude33,040.61 km
Semi-major axis39,666.608 km
Eccentricity0.0062486
Inclination1.6091°
RAAN115.8076°
Arg. of periapsis209.341°
True anomaly154.71385°
Mean anomaly154.4067°
Eccentric anomaly154.56049°
Mean motion0.27473 °/min
BSTARUnknown
Orbital period1310.38 mins
Loading maneuver chart data...
Loading historical data...
Loading historical data...
Loading historical data...
Loading historical data...
Loading historical data...
Loading historical data...
Loading historical data...

OPS 9332 (IDSCS 17) Visibility forecast

Observer location: undefined°, undefined

Span
Click to sort rows by Start time (UTC) header in descending order
Start Az.
Max El. time (UTC)
Max El. Az.
Max El.
End time (UTC)
End Az.
1440 mins2024-12-12 07:18:49.876Z247.079° WSW2024-12-13 07:18:49.876Z213.322° SW30.537°2024-12-13 07:18:49.876Z213.322° SW
|